[[{"header":{"parameterUnit":"m.s-1","parameterCategory":1,"la1":30.2991,"la2":30.254,"lo1":-89.0895,"lo2":-89.0444,"dy":0.0017,"dx":0.0017,"nx":28,"ny":28,"refTime":"2023-09-27T21:00:00:Z","depth":0,"parameterNumber":2,"parameterNumberName":"U-component_of_WINDS"},"data":[0,0,0,0,0,0,0,0,0,0,0,0,0,0,0,0,0,0,0,0,0,0,0,0,0,0,0,0,0,0,0,0,0,0,0,0,0,0,0,0,0,0,0,0,0,0,0,0,0,0,0,0,0,0,0,0,0,0,-5.2937,-5.2937,0,-5.2983,-5.2983,-5.2984,-5.282,-5.2815,-5.281,-5.2805,-5.2852,-5.2858,-5.2863,0,0,0,0,0,0,0,0,0,0,0,0,0,-5.2705,-5.271,-5.2937,-5.2937,-5.2938,-5.2983,-5.2983,-5.2984,-5.2821,-5.2815,-5.2809,-5.2803,-5.285,-5.2857,-5.2864,0,0,0,0,0,0,0,0,0,0,0,0,0,-5.2784,-5.2712,-5.2936,-5.2862,-5.2855,-5.2983,-5.2983,-5.2984,-5.2822,-5.2814,-5.2807,-5.28,-5.2848,-5.2856,-5.2865,-5.3066,0,0,-5.2892,-5.2895,0,0,0,0,0,0,0,0,-5.278,-5.2793,-5.2872,-5.2867,-5.286,-5.2888,-5.2919,-5.3012,-5.2824,-5.2835,-5.2805,-5.2796,-5.287,-5.2876,-5.2901,-5.3069,-5.3071,-5.2892,-5.2898,-5.2901,-5.2904,0,0,0,0,0,0,0,-5.2775,-5.279,-5.2955,-5.2873,-5.2866,-5.2825,-5.2828,-5.2936,-5.2893,-5.2833,-5.2821,-5.2829,-5.2865,-5.2893,-5.2901,-5.3071,-5.2892,-5.29,-5.2905,-5.2909,-5.3404,-5.3412,0,0,0,0,0,0,-5.2779,-5.2786,-5.2953,-5.2956,-5.2801,-5.2835,-5.2839,-5.2886,-5.2891,-5.2885,-5.2835,-5.2821,-5.2882,-5.2891,-5.2902,-5.3136,-5.2901,-5.2909,-5.2914,-5.3397,-5.3406,-5.3415,0,0,0,0,0,0,-5.2775,-5.2795,-5.2951,-5.2868,-5.2885,-5.2847,-5.2902,-5.2891,-5.2919,-5.2893,-5.2884,-5.2872,-5.2876,-5.289,-5.3026,-5.3135,-5.2913,-5.2921,-5.3387,-5.34,-5.3411,-5.3608,0,0,0,0,0,0,-5.2769,-5.2795,-5.2871,-5.2871,-5.289,-5.3076,-5.2909,-5.2898,-5.2935,-5.2917,-5.2925,-5.2919,-5.2872,-5.3014,-5.3035,-5.3143,-5.2928,-5.3377,-5.3393,-5.3407,-5.3591,-5.3625,-5.3654,0,0,0,0,0,-5.2761,-5.2925,-5.2876,-5.2897,-5.2985,-5.3082,-5.3093,-5.3035,-5.2944,-5.302,-5.3003,-5.2919,-5.3121,-5.303,-5.3052,-5.3164,-5.337,-5.3388,-5.3406,-5.3577,-5.3618,-5.3653,0,0,0,0,0,0,-5.2939,-5.2924,-5.2869,-5.3038,-5.3063,-5.3054,-5.3148,-5.3081,-5.3132,-5.3113,-5.3038,-5.3042,-5.3191,-5.3192,-5.309,-5.3359,-5.323,-5.3253,-5.3353,-5.3391,-5.3422,-5.3417,-5.2935,0,0,0,0,0,-5.2998,-5.3079,-5.3061,-5.3212,-5.3227,-5.3187,-5.3227,-5.318,-5.3203,-5.3212,-5.3205,-5.323,-5.3299,-5.3346,-5.3408,-5.3592,-5.359,-5.368,-5.3712,-5.3737,-5.3757,-5.3853,-5.3892,-5.3473,-5.3473,-5.3473,0,0,-5.312,-5.3122,-5.3177,-5.3248,-5.3261,-5.3346,-5.3196,-5.3293,-5.3354,-5.3227,-5.3354,-5.3351,-5.3374,-5.3535,-5.3605,-5.354,-5.3873,-5.376,-5.3781,-5.3786,-5.3875,-5.3915,-5.395,-5.3485,-5.3483,-5.3481,0,0,-5.3385,-5.3396,-5.3522,-5.3539,-5.3562,-5.3533,-5.3564,-5.3567,-5.3559,-5.3687,-5.3592,-5.3665,-5.3786,-5.3805,-5.3831,-5.4105,-5.4029,-5.4128,-5.429,-5.4384,-5.4417,-5.4445,-5.4541,-5.4576,-5.4148,-5.4149,-5.4149,0,-5.3534,-5.3658,-5.3595,-5.3698,-5.373,-5.362,-5.3746,-5.3766,-5.3808,-5.3833,-5.376,-5.3908,-5.3916,-5.4079,-5.4146,-5.4171,-5.4202,-5.4125,-5.4417,-5.4445,-5.4471,-5.4561,-5.4598,-5.4161,-5.4159,-5.4158,-5.4157,0,-5.3838,-5.3926,-5.4025,-5.4069,-5.4113,-5.4228,-5.4181,-5.4234,-5.4184,-5.4164,-5.4295,-5.4301,-5.4361,-5.4397,-5.435,-5.4554,-5.4512,-5.443,-5.4297,-5.4524,-5.4607,-5.4642,-5.4177,-5.4173,-5.417,-5.4167,0,0,-5.4214,-5.4222,-5.4259,-5.4277,-5.4295,-5.4361,-5.447,-5.453,-5.4575,-5.4609,-5.4697,-5.4803,-5.4726,-5.4756,-5.471,-5.4793,-5.5007,-5.47,-5.4699,-5.4754,-5.523,-5.529,-5.5331,-5.4958,-5.4965,-5.497,-5.5227,0,-5.4472,-5.4659,-5.4606,-5.4792,-5.4871,-5.4768,-5.4863,-5.4884,-5.4869,-5.4934,-5.4916,-5.4991,-5.4886,-5.4903,-5.4981,-5.4965,-5.5101,-5.4946,-5.5038,-5.5042,-5.5032,-5.5375,-5.5438,-5.568,-5.526,-5.5265,-5.5269,0,-5.4798,-5.4844,-5.5039,-5.5042,-5.5074,-5.516,-5.5209,-5.5274,-5.5295,-5.5278,-5.5312,-5.5249,-5.5356,-5.5226,-5.5371,-5.5267,-5.5302,-5.53,-5.5308,-5.5312,-5.5167,-5.5385,-5.5757,-5.5792,-5.532,-5.5316,-5.5312,0,-5.5049,-5.516,-5.529,-5.5309,-5.5318,-5.538,-5.5387,-5.5401,-5.544,-5.5485,-5.5509,-5.5565,-5.5596,-5.5641,-5.5594,-5.5505,-5.5746,-5.5613,-5.5733,-5.5735,-5.5786,-5.5783,-5.6166,-5.5815,-5.5814,-5.5813,-5.5813,0,-5.5341,-5.5463,-5.5402,-5.5482,-5.5616,-5.5555,-5.5689,-5.5684,-5.5698,-5.5774,-5.569,-5.5763,-5.57,-5.5768,-5.5733,-5.5857,-5.5872,-5.586,-5.5849,-5.5866,-5.5867,-5.5885,-5.5866,-5.5823,-5.5821,-5.5819,-5.5817,0,-5.5642,-5.5607,-5.5741,-5.5739,-5.5741,-5.584,-5.5837,-5.5911,-5.589,-5.5988,-5.6007,-5.5975,-5.605,-5.601,-5.6088,-5.6064,-5.6225,-5.6192,-5.6217,-5.6207,-5.6329,-5.6317,-5.6734,-5.6785,-5.6405,-5.6408,-5.6411,0,-5.5829,-5.592,-5.5928,-5.5973,-5.5986,-5.606,-5.6099,-5.6043,-5.6088,-5.612,-5.6189,-5.6258,-5.6309,-5.6435,-5.6417,-5.6477,-5.6443,-5.6585,-5.6451,-5.6465,-5.6442,-5.6436,-5.6443,-5.6611,-5.6616,-5.6619,-5.6622,0,-5.6163,-5.6141,-5.6202,-5.6257,-5.6306,-5.6347,-5.638,-5.6422,-5.6366,-5.6421,-5.6497,-5.6537,-5.6617,-5.6685,-5.6737,-5.6742,-5.6673,-5.6665,-5.6696,-5.6712,-5.6722,-5.6716,-5.6288,-5.6655,-5.6652,-5.6649,-5.6648,-5.6646,-5.6411,-5.6487,-5.6504,-5.6574,-5.6593,-5.6627,-5.6695,-5.6683,-5.6746,-5.6806,-5.677,-5.6859,-5.6879,-5.694,-5.6956,-5.7024,-5.6967,-5.7012,-5.7023,-5.7034,-5.7049,-5.6714,-5.7034,-5.7033,-5.7032,-5.7031,-5.703,0,-5.6738,-5.6744,-5.681,-5.6859,-5.6914,-5.6846,-5.6879,-5.6929,-5.7009,-5.7034,-5.7086,-5.7174,-5.724,-5.7229,-5.7289,-5.7346,-5.7316,-5.7364,-5.7357,-5.736,-5.7098,-5.7064,-5.7387,-5.7387,-5.7387,-5.7387,-5.7387,-5.7387,-5.6914,-5.7039,-5.702,-5.7153,-5.7158,-5.7245,-5.727,-5.73,-5.7319,-5.742,-5.7475,-5.7468,-5.7478,-5.7538,-5.7596,-5.7591,-5.7616,-5.7675,-5.7659,-5.7414,-5.7378,-5.7344,-5.7312,-5.7682,-5.7682,-5.7914,-5.7916,-5.7918]},{"header":{"parameterUnit":"m.s-1","parameterCategory":1,"la1":30.2991,"la2":30.254,"lo1":-89.0895,"lo2":-89.0444,"dy":0.0017,"dx":0.0017,"nx":28,"ny":28,"refTime":"2023-09-27T21:00:00:Z","depth":0,"parameterNumber":3,"parameterNumberName":"V-component_of_WINDS"},"data":[0,0,0,0,0,0,0,0,0,0,0,0,0,0,0,0,0,0,0,0,0,0,0,0,0,0,0,0,0,0,0,0,0,0,0,0,0,0,0,0,0,0,0,0,0,0,0,0,0,0,0,0,0,0,0,0,0,0,0.0034,0.0032,0,-0.01,-0.0102,-0.0103,-0.0166,-0.0165,-0.0165,-0.0165,-0.0309,-0.0313,-0.0317,0,0,0,0,0,0,0,0,0,0,0,0,0,0.023,0.0227,0.0034,0.0032,0.0031,-0.01,-0.0102,-0.0104,-0.0166,-0.0165,-0.0165,-0.0165,-0.0308,-0.0313,-0.0317,0,0,0,0,0,0,0,0,0,0,0,0,0,0.0126,0.0226,0.0034,-0.0016,-0.0022,-0.0099,-0.0102,-0.0104,-0.0166,-0.0165,-0.0165,-0.0165,-0.0306,-0.0312,-0.0318,-0.0358,0,0,-0.0336,-0.0339,0,0,0,0,0,0,0,0,0.0132,0.0118,-0.0007,-0.0013,-0.0019,-0.0116,-0.0085,-0.019,-0.0166,-0.0111,-0.0165,-0.0165,-0.0246,-0.0256,-0.0282,-0.0365,-0.0371,-0.0337,-0.034,-0.0343,-0.0344,0,0,0,0,0,0,0,0.0139,0.0124,-0.0019,-0.0009,-0.0016,-0.0034,-0.0048,-0.0105,-0.0178,-0.0116,-0.0121,-0.0135,-0.0249,-0.0276,-0.0286,-0.0373,-0.0336,-0.0342,-0.0345,-0.0348,-0.0495,-0.0495,0,0,0,0,0,0,0.0155,0.013,-0.0015,-0.0023,0.0058,-0.0037,-0.0054,-0.0085,-0.0177,-0.0191,-0.0135,-0.0138,-0.0266,-0.0279,-0.0291,-0.0344,-0.0343,-0.0348,-0.0352,-0.0495,-0.0495,-0.0496,0,0,0,0,0,0,0.016,0.0143,-0.001,0.0052,0.0031,-0.0041,-0.0076,-0.0088,-0.0115,-0.0192,-0.0206,-0.015,-0.0267,-0.0283,-0.034,-0.035,-0.0351,-0.0356,-0.0494,-0.0495,-0.0495,-0.0449,0,0,0,0,0,0,0.0166,0.0145,0.013,0.0052,0.0028,-0.0055,-0.0076,-0.0091,-0.0124,-0.0129,-0.0209,-0.0222,-0.0268,-0.0331,-0.0346,-0.0358,-0.0361,-0.0494,-0.0495,-0.0495,-0.0451,-0.0448,-0.0447,0,0,0,0,0,0.0173,0.0147,0.013,0.0112,0.0009,-0.0055,-0.0069,-0.0119,-0.0125,-0.0141,-0.019,-0.022,-0.0346,-0.0337,-0.0354,-0.0368,-0.0493,-0.0494,-0.0495,-0.0451,-0.0449,-0.0447,0,0,0,0,0,0,0.0222,0.0135,0.0116,0.0064,0.0013,-0.0065,-0.0088,-0.0115,-0.0167,-0.0169,-0.0231,-0.0249,-0.03,-0.034,-0.0328,-0.0411,-0.0423,-0.0427,-0.0383,-0.0382,-0.038,-0.0369,-0.0366,0,0,0,0,0,0.0228,0.0185,0.0111,0.0072,0.0048,-0.0015,-0.0045,-0.0078,-0.0135,-0.0158,-0.0211,-0.0267,-0.0319,-0.0353,-0.0405,-0.0456,-0.0475,-0.0474,-0.0472,-0.047,-0.0474,-0.0503,-0.0504,-0.0498,-0.0498,-0.0498,0,0,0.0237,0.0184,0.0161,0.0081,0.0037,-0.0007,-0.0033,-0.008,-0.0113,-0.0166,-0.0222,-0.0263,-0.033,-0.0384,-0.041,-0.0418,-0.0479,-0.0471,-0.0469,-0.0474,-0.0504,-0.0505,-0.0505,-0.0499,-0.0499,-0.0499,0,0,0.0232,0.0188,0.0152,0.011,0.0045,0.0004,-0.0005,-0.0079,-0.0107,-0.0164,-0.0204,-0.0246,-0.0335,-0.038,-0.0415,-0.0434,-0.0464,-0.045,-0.044,-0.0468,-0.0469,-0.047,-0.0477,-0.0478,-0.0453,-0.0453,-0.0453,0,0.0251,0.0185,0.0136,0.0093,0.0058,0.0012,-0.0026,-0.0066,-0.0145,-0.0168,-0.0175,-0.0286,-0.0335,-0.0399,-0.0404,-0.043,-0.0443,-0.0442,-0.0464,-0.0466,-0.0467,-0.0475,-0.0477,-0.0451,-0.0451,-0.0451,-0.0451,0,0.0212,0.0167,0.0145,0.0073,0.0036,-0.0005,-0.0061,-0.0093,-0.0123,-0.0164,-0.0221,-0.028,-0.0345,-0.0362,-0.0393,-0.0432,-0.0435,-0.0452,-0.0465,-0.0465,-0.0473,-0.0476,-0.0448,-0.0448,-0.0449,-0.045,0,0,0.0233,0.0136,0.0128,0.0096,0.0022,-0.0015,-0.0058,-0.0118,-0.0144,-0.0197,-0.0236,-0.0308,-0.0324,-0.0363,-0.04,-0.0424,-0.0436,-0.0439,-0.0441,-0.0436,-0.0482,-0.0468,-0.0471,-0.0455,-0.0456,-0.0456,-0.0476,0,0.0217,0.0141,0.0096,0.0038,-0.0005,-0.0049,-0.0086,-0.0136,-0.0175,-0.0218,-0.0263,-0.0313,-0.033,-0.0354,-0.038,-0.0428,-0.0446,-0.0428,-0.0492,-0.0494,-0.0475,-0.0475,-0.0461,-0.0477,-0.048,-0.048,-0.0481,0,0.0188,0.014,0.0078,0.0011,-0.0009,-0.0042,-0.01,-0.014,-0.0198,-0.0225,-0.0267,-0.0303,-0.0351,-0.0359,-0.0426,-0.0413,-0.0442,-0.047,-0.0472,-0.048,-0.0488,-0.0484,-0.0484,-0.0486,-0.0486,-0.0486,-0.0485,0,0.021,0.0129,0.0081,0.0054,-0.0026,-0.0047,-0.0082,-0.014,-0.0173,-0.0224,-0.0247,-0.0304,-0.0336,-0.038,-0.0431,-0.0432,-0.0493,-0.0506,-0.0518,-0.0517,-0.053,-0.0529,-0.0535,-0.0547,-0.0547,-0.0547,-0.0547,0,0.0197,0.0161,0.009,0.0061,0.0019,-0.0032,-0.0073,-0.0112,-0.0162,-0.0201,-0.0243,-0.0279,-0.0343,-0.0387,-0.0427,-0.0477,-0.0491,-0.0515,-0.0525,-0.0512,-0.0508,-0.0532,-0.0533,-0.0548,-0.0548,-0.0548,-0.0548,0,0.0213,0.0164,0.011,0.004,0.0022,-0.0006,-0.0068,-0.0098,-0.0138,-0.0186,-0.0201,-0.0265,-0.0319,-0.0373,-0.0446,-0.0473,-0.0522,-0.0536,-0.0502,-0.0508,-0.0517,-0.0515,-0.0539,-0.0545,-0.0553,-0.0553,-0.0552,0,0.0208,0.0179,0.0107,0.008,0.0047,0.0003,-0.003,-0.0082,-0.0115,-0.0182,-0.0205,-0.0261,-0.0309,-0.0393,-0.0447,-0.0503,-0.0519,-0.0523,-0.0528,-0.0513,-0.052,-0.0517,-0.0521,-0.0522,-0.0522,-0.0521,-0.0521,0,0.0204,0.0182,0.0137,0.0084,0.0047,0.0002,-0.0045,-0.0065,-0.0126,-0.0161,-0.0215,-0.0252,-0.0325,-0.0381,-0.0443,-0.0481,-0.0512,-0.0519,-0.0525,-0.0511,-0.049,-0.0502,-0.0497,-0.0518,-0.0519,-0.0519,-0.0519,-0.0519,0.0208,0.0181,0.0127,0.0079,0.0039,-0.0002,-0.0034,-0.0077,-0.0122,-0.0184,-0.0212,-0.0266,-0.0323,-0.0409,-0.0446,-0.0491,-0.0499,-0.0508,-0.051,-0.0511,-0.0508,-0.0482,-0.0502,-0.0502,-0.0503,-0.0503,-0.0503,0,0.0202,0.0166,0.0122,0.006,0.0022,-0.0,-0.0052,-0.0083,-0.0129,-0.0179,-0.0224,-0.0286,-0.0339,-0.0396,-0.0454,-0.0478,-0.0494,-0.0492,-0.0491,-0.0499,-0.0497,-0.0486,-0.0478,-0.0478,-0.0478,-0.0478,-0.0478,-0.0478,0.0194,0.0148,0.012,0.0053,0.0016,-0.0035,-0.0063,-0.0102,-0.0141,-0.0207,-0.0251,-0.0287,-0.034,-0.0401,-0.0451,-0.0467,-0.0486,-0.048,-0.05,-0.0497,-0.0499,-0.0501,-0.0491,-0.0484,-0.0484,-0.0498,-0.0498,-0.0498]}]]